TimeMST,TemperatureF,Dew PointF,Humidity,Sea Level PressureIn,VisibilityMPH,Wind Direction,Wind SpeedMPH,Gust SpeedMPH,PrecipitationIn,Events,Conditions,WindDirDegrees,DateUTC
12:07 AM,19.4,15.8,86,29.97,0.5,Calm,Calm,-,N/A,Fog,Light Freezing Fog,0,2013-02-24 07:07:00
12:21 AM,19.4,15.8,86,29.98,0.5,WSW,3.5,-,N/A,Fog,Light Freezing Fog,240,2013-02-24 07:21:00
12:51 AM,15.1,10.9,84,30.09,0.2,Calm,Calm,-,N/A,Fog,Light Freezing Fog,0,2013-02-24 07:51:00
1:11 AM,14.0,10.4,86,29.99,0.2,NW,3.5,-,N/A,Fog,Light Freezing Fog,320,2013-02-24 08:11:00
1:26 AM,15.8,12.2,86,30.00,0.5,NNW,3.5,-,N/A,Fog,Light Freezing Fog,330,2013-02-24 08:26:00
1:46 AM,15.8,12.2,86,30.00,1.0,Calm,Calm,-,N/A,,Overcast,0,2013-02-24 08:46:00
1:51 AM,15.1,10.9,84,30.11,2.0,Calm,Calm,-,N/A,,Overcast,0,2013-02-24 08:51:00
1:58 AM,15.8,10.4,79,29.99,1.8,Calm,Calm,-,N/A,,Overcast,0,2013-02-24 08:58:00
2:05 AM,15.8,10.4,79,29.99,1.8,Calm,Calm,-,N/A,,Haze,0,2013-02-24 09:05:00
2:08 AM,15.8,10.4,79,30.00,1.5,Calm,Calm,-,N/A,,Overcast,0,2013-02-24 09:08:00
2:14 AM,15.8,10.4,79,30.00,1.2,Calm,Calm,-,N/A,,Overcast,0,2013-02-24 09:14:00
2:18 AM,15.8,12.2,86,30.00,0.8,Calm,Calm,-,N/A,,Overcast,0,2013-02-24 09:18:00
2:51 AM,16.0,12.9,88,30.12,0.5,Calm,Calm,-,N/A,Fog,Light Freezing Fog,0,2013-02-24 09:51:00
3:51 AM,14.0,9.0,80,30.13,0.2,West,4.6,-,N/A,,Haze,270,2013-02-24 10:51:00
4:51 AM,14.0,9.0,80,30.15,0.2,Calm,Calm,-,N/A,,Haze,0,2013-02-24 11:51:00
5:51 AM,12.9,10.0,88,30.18,0.2,SW,4.6,-,N/A,Fog,Light Freezing Fog,220,2013-02-24 12:51:00
6:51 AM,10.0,6.1,84,30.22,0.2,Calm,Calm,-,N/A,Fog,Light Freezing Fog,0,2013-02-24 13:51:00
7:34 AM,8.6,3.2,79,30.10,3.0,Calm,Calm,-,N/A,,Haze,0,2013-02-24 14:34:00
7:51 AM,9.0,5.0,84,30.26,3.0,Calm,Calm,-,N/A,,Clear,0,2013-02-24 14:51:00
7:54 AM,6.8,3.2,85,30.11,1.8,Calm,Calm,-,N/A,,Partly Cloudy,0,2013-02-24 14:54:00
8:01 AM,8.6,3.2,79,30.12,1.0,ESE,4.6,-,N/A,,Haze,110,2013-02-24 15:01:00
8:08 AM,8.6,5.0,85,30.12,1.5,Calm,Calm,-,N/A,,Partly Cloudy,0,2013-02-24 15:08:00
8:20 AM,6.8,3.2,85,30.13,2.0,Calm,Calm,-,N/A,,Partly Cloudy,0,2013-02-24 15:20:00
8:38 AM,6.8,3.2,85,30.14,1.5,Calm,Calm,-,N/A,,Partly Cloudy,0,2013-02-24 15:38:00
8:45 AM,6.8,3.2,85,30.14,4.0,Calm,Calm,-,N/A,,Partly Cloudy,0,2013-02-24 15:45:00
8:51 AM,8.1,7.0,95,30.30,5.0,Calm,Calm,-,N/A,,Partly Cloudy,0,2013-02-24 15:51:00
9:08 AM,12.2,8.6,85,30.15,2.5,Calm,Calm,-,N/A,,Haze,0,2013-02-24 16:08:00
9:20 AM,10.4,6.8,85,30.16,4.0,Calm,Calm,-,N/A,,Haze,0,2013-02-24 16:20:00
9:51 AM,15.1,10.9,84,30.32,6.0,South,3.5,-,N/A,,Clear,180,2013-02-24 16:51:00
10:51 AM,19.0,12.9,77,30.31,9.0,Calm,Calm,-,N/A,,Clear,0,2013-02-24 17:51:00
11:51 AM,23.0,15.1,72,30.29,10.0,Calm,Calm,-,N/A,,Clear,0,2013-02-24 18:51:00
12:51 PM,23.0,12.9,65,30.31,10.0,Calm,Calm,-,N/A,,Clear,0,2013-02-24 19:51:00
1:51 PM,26.1,12.9,58,30.29,10.0,Calm,Calm,-,N/A,,Clear,0,2013-02-24 20:51:00
2:51 PM,24.1,15.1,69,30.30,10.0,West,4.6,-,N/A,,Clear,260,2013-02-24 21:51:00
3:51 PM,26.1,10.9,53,30.32,10.0,Calm,Calm,-,N/A,,Clear,0,2013-02-24 22:51:00
4:51 PM,25.0,10.9,55,30.33,10.0,Calm,Calm,-,N/A,,Clear,0,2013-02-24 23:51:00
5:51 PM,23.0,10.9,60,30.36,10.0,East,3.5,-,N/A,,Clear,100,2013-02-25 00:51:00
6:51 PM,16.0,10.0,77,30.40,10.0,Calm,Calm,-,N/A,,Clear,0,2013-02-25 01:51:00
7:51 PM,12.0,6.1,77,30.43,10.0,Calm,Calm,-,N/A,,Clear,0,2013-02-25 02:51:00
8:51 PM,10.0,5.0,80,30.45,10.0,Calm,Calm,-,N/A,,Clear,0,2013-02-25 03:51:00
9:51 PM,8.1,1.9,76,30.44,10.0,Calm,Calm,-,N/A,,Clear,0,2013-02-25 04:51:00
10:40 PM,1.4,-0.4,92,30.26,1.8,WNW,3.5,-,N/A,,Clear,290,2013-02-25 05:40:00
10:51 PM,-2.9,-6.0,87,30.48,4.0,North,3.5,-,N/A,,Clear,350,2013-02-25 05:51:00